DW9396 Weather Reports


Display with metric or nautical units.
time (UTC)temp
F
wind
direction
speed
MPH
gust
MPH
rain 1hr
in
rain 24hr
in
rain mn
in
humidity
%
barometer
mb
20240220213041 52 270 0.0 1.0 0.00 0.30 0.10 79 1016.2
20240220211539 52 275 0.0 3.0 0.00 0.30 0.10 79 1016.4
20240220210037 52 256 0.0 1.0 0.00 0.30 0.10 81 1016.6
20240220203036 53 277 0.0 2.0 0.00 0.48 0.10 82 1016.9
20240220201536 53 75 0.0 3.0 0.00 0.48 0.10 81 1017.2
20240220200031 52 129 0.0 2.0 0.00 0.48 0.10 87 1017.5
20240220193026 51 277 0.0 3.0 0.01 0.48 0.10 90 1018.3
20240220191532 50 280 0.0 2.0 0.02 0.48 0.10 92 1018.5
20240220190019 48 255 0.0 4.0 0.02 0.48 0.10 95 1018.5
20240220183016 46 250 0.0 2.0 0.01 0.57 0.09 97 1019.1
20240220181515 45 102 0.0 1.0 0.01 0.57 0.09 98 1019.1
20240220180011 44 39 0.0 1.0 0.01 0.56 0.08 98 1019.3
20240220173011 42 129 0.0 1.0 0.05 0.56 0.08 98 1019.5
20240220171508 41 129 0.0 1.0 0.06 0.56 0.08 97 1019.3
20240220170014 40 133 0.0 1.0 0.05 0.56 0.07 97 1019.4
20240220163006 39 129 0.0 3.0 0.01 0.53 0.03 97 1019.3
20240220161503 38 139 0.0 3.0 0.00 0.52 0.02 97 1018.9
20240220160103 38 136 1.0 2.0 0.00 0.52 0.02 97 1018.8
20240220154659 37 131 0.0 1.0 0.01 0.52 0.02 97 1018.6
20240220153101 37 136 0.0 2.0 0.01 0.52 0.02 96 1018.5
20240220151606 37 143 0.0 3.0 0.01 0.52 0.02 96 1018.4
20240220150057 38 125 0.0 1.0 0.01 0.52 0.02 97 1018.3
20240220144657 37 133 0.0 3.0 0.00 0.80 0.01 96 1018.2
20240220143029 37 133 0.0 4.0 0.00 0.80 0.01 96 1018.0
20240220141532 38 139 1.0 4.0 0.00 0.80 0.01 96 1018.0
20240220140056 38 126 0.0 2.0 0.00 0.80 0.01 96 1017.7
20240220134556 38 134 1.0 3.0 0.00 0.81 0.01 96 1017.8
20240220133049 38 121 0.0 2.0 0.00 0.81 0.01 96 1017.6
20240220131546 39 133 0.0 1.0 0.00 0.81 0.01 96 1017.5
20240220130104 39 132 0.0 2.0 0.00 0.81 0.01 96 1017.3
20240220124601 39 128 0.0 1.0 0.00 0.81 0.01 96 1017.2
20240220123056 39 126 0.0 1.0 0.00 0.81 0.01 96 1017.1
20240220121554 40 145 0.0 2.0 0.00 0.81 0.01 96 1017.1
20240220120040 40 138 0.0 3.0 0.00 0.81 0.01 96 1017.0
20240220114537 40 134 0.0 3.0 0.00 0.92 0.01 96 1016.9
20240220113035 40 127 0.0 3.0 0.00 0.92 0.01 96 1017.0
20240220111532 40 138 1.0 4.0 0.00 0.92 0.01 96 1016.9
20240220110048 41 91 0.0 3.0 0.00 0.92 0.01 96 1016.8
20240220104546 41 133 0.0 3.0 0.00 1.44 0.01 96 1017.0
20240220103049 41 97 0.0 1.0 0.01 1.44 0.01 96 1017.2
20240220101540 42 86 0.0 3.0 0.01 1.44 0.01 97 1017.2
20240220100025 42 155 0.0 2.0 0.01 1.44 0.01 97 1017.2
20240220094524 42 105 0.0 2.0 0.01 1.59 0.01 97 1017.2
20240220093023 42 203 0.0 4.0 0.00 1.58 0.00 97 1017.2
20240220091520 42 108 0.0 2.0 0.00 1.58 0.00 97 1016.9
20240220090018 42 53 0.0 2.0 0.00 1.58 0.00 97 1016.7
20240220084533 43 118 0.0 1.0 0.00 1.76 1.58 97 1016.7
20240220083023 42 118 0.0 1.0 0.00 1.76 1.58 97 1016.8
20240220081523 43 47 0.0 0.0 0.00 1.76 1.58 97 1017.0
20240220080016 43 25 0.0 1.0 0.00 1.76 1.58 97 1016.9
20240220074521 43 132 0.0 1.0 0.00 2.12 1.58 97 1017.0
20240220073019 42 133 0.0 1.0 0.00 2.12 1.58 97 1016.9
20240220071515 43 133 0.0 1.0 0.04 2.12 1.58 96 1016.7
20240220070018 43 133 0.0 1.0 0.04 2.12 1.58 96 1016.6
20240220064517 44 131 0.0 1.0 0.04 2.34 1.58 96 1016.4
20240220063014 44 214 0.0 1.0 0.05 2.34 1.58 96 1016.2
20240220061513 44 340 0.0 2.0 0.05 2.34 1.58 96 1016.1
20240220060007 44 26 0.0 2.0 0.01 2.29 1.54 96 1016.1
20240220054509 45 158 0.0 2.0 0.02 2.33 1.54 96 1016.0
20240220053005 44 305 0.0 1.0 0.03 2.31 1.53 96 1015.8
20240220051502 45 138 0.0 1.0 0.07 2.31 1.53 96 1015.4
20240220050002 45 34 0.0 1.0 0.07 2.31 1.53 96 1015.3
20240220044559 45 294 0.0 2.0 0.07 2.33 1.52 95 1015.1
20240220043059 45 217 0.0 2.0 0.07 2.33 1.52 95 1014.9
20240220041558 45 158 0.0 2.0 0.01 2.27 1.46 95 1014.6
20240220040106 45 205 0.0 5.0 0.01 2.27 1.46 95 1014.5
20240220034556 46 163 0.0 2.0 0.01 2.25 1.45 95 1014.4
20240220033057 46 235 0.0 2.0 0.02 2.25 1.45 95 1014.1
20240220031551 46 333 0.0 1.0 0.02 2.25 1.45 95 1013.7
20240220030051 46 153 0.0 2.0 0.04 2.25 1.45 95 1013.4
20240220024557 46 173 0.0 1.0 0.03 2.25 1.44 93 1013.2
20240220023051 47 184 0.0 1.0 0.02 2.24 1.43 92 1012.8
20240220021545 48 198 0.0 2.0 0.02 2.24 1.43 90 1012.6
20240220020045 48 293 1.0 3.0 0.00 2.22 1.41 88 1012.0
20240220014542 48 252 0.0 4.0 0.00 2.22 1.41 87 1011.5
20240220013039 49 155 0.0 3.0 0.00 2.22 1.41 87 1011.7
20240220011538 49 138 0.0 2.0 0.00 2.22 1.41 87 1011.7
20240220010137 49 187 0.0 7.0 0.00 2.22 1.41 88 1011.7
20240220004540 49 198 0.0 2.0 0.01 2.22 1.41 92 1011.5
20240220003042 48 190 0.0 4.0 0.01 2.22 1.41 94 1011.4
20240220001537 49 184 0.0 2.0 0.01 2.22 1.41 95 1011.5
20240220000037 49 240 0.0 1.0 0.01 2.22 1.41 96 1011.6
20240219234536 49 41 0.0 2.0 0.00 2.21 1.40 96 1011.3
20240219233042 49 348 1.0 5.0 0.00 2.21 1.40 96 1011.2
20240219231536 49 37 0.0 3.0 0.00 2.21 1.40 97 1011.1
20240219230029 49 160 0.0 2.0 0.00 2.21 1.40 97 1011.3
20240219224528 50 207 0.0 1.0 0.00 2.21 1.40 97 1011.3
20240219223029 50 218 2.0 6.0 0.00 2.21 1.40 97 1011.3
20240219221526 51 243 0.0 2.0 0.02 2.21 1.40 98 1011.0
20240219220027 50 148 0.0 2.0 0.02 2.21 1.40 98 1011.0
20240219214526 49 222 0.0 3.0 0.02 2.21 1.40 98 1010.8